Weather History for Homestead AFB, FL

Change the Weather History Date:

Monday, May 5, 2014

  Actual Average Record
Temperature  
Mean Temperature 74 °F -  
Max Temperature 82 °F 85 °F 94 °F (1975)
Min Temperature 66 °F 64 °F 50 °F (1945)
Cooling Degree Days 9    
Growing Degree Days 24 (Base 50)    
Moisture  
Dew Point 63 °F    
Average Humidity 66    
Maximum Humidity 78    
Minimum Humidity 54    
Precipitation  
Precipitation 0.00 in - - ()
Sea Level Pressure  
Sea Level Pressure 30.04 in    
Wind  
Wind Speed 7 mph (NE)    
Max Wind Speed 13 mph    
Max Gust Speed 22 mph    
Visibility 10 miles    
Events      
Averages and records for this station are not official NWS values.
T = Trace of Precipitation, MM = Missing Value Source: NWS Daily Summary

Daily Weather History Graph

Daily Weather History Graph

Search for Another Location

Airport:

Trip Planner

Search our weather history database for the weather conditions in past years. The results will help you decide how hot, cold, wet, or windy it might be!

Date:

Astronomy

May. 05, 2014 Rise Set
Actual Time 6:42 AM EDT 7:54 PM EDT
Civil Twilight 6:17 AM EDT 8:18 PM EDT
Nautical Twilight 5:49 AM EDT 8:47 PM EDT
Astronomical Twilight 5:19 AM EDT 9:17 PM EDT
Moon 11:58 AM EDT (5/5) 12:38 AM EDT (5/5)
Length of Visible Light 14h 00m
Length of Day
13h 12m
Waxing Crescent, 36% of the Moon is Illuminated
May 5
Waxing Crescent
May 6
First Quarter
May 14
Full
May 21
Last Quarter
May 28
New

Hourly Weather History & Observations

Time (EDT) Temp. Heat Index Dew Point Humidity Pressure Visibility Wind Dir Wind Speed Gust Speed Precip Events Conditions
12:58 AM 69.3 °F - 61.2 °F 75% 30.07 in 10.0 mi North 3.5 mph - N/A   Clear
1:58 AM 69.1 °F - 61.7 °F 77% 30.05 in 10.0 mi NNW 5.8 mph - N/A   Clear
2:58 AM 67.6 °F - 60.4 °F 78% 30.05 in 10.0 mi NNW 4.6 mph - N/A   Clear
3:58 AM 67.6 °F - 60.4 °F 78% 30.05 in 10.0 mi NNW 5.8 mph - N/A   Partly Cloudy
4:58 AM 67.8 °F - 59.9 °F 76% 30.05 in 10.0 mi NNW 5.8 mph - N/A   Partly Cloudy
5:58 AM 66.7 °F - 59.0 °F 76% 30.04 in 10.0 mi NNW 5.8 mph - N/A   Clear
6:58 AM 66.9 °F - 58.8 °F 75% 30.06 in 10.0 mi NNW 5.8 mph - N/A   Clear
7:58 AM 70.2 °F - 60.1 °F 70% 30.07 in 10.0 mi Variable 6.9 mph - N/A   Clear
8:58 AM 75.4 °F - 62.6 °F 64% 30.07 in 10.0 mi NNE 6.9 mph - N/A   Clear
9:58 AM 79.5 °F - 64.6 °F 60% 30.07 in 10.0 mi NE 11.5 mph - N/A   Clear
10:58 AM 79.9 °F - 65.5 °F 61% 30.07 in 10.0 mi NE 12.7 mph - N/A   Clear
11:58 AM 81.5 °F 83.1 °F 64.4 °F 56% 30.07 in 10.0 mi ENE 12.7 mph 19.6 mph N/A   Clear
12:58 PM 81.9 °F 83.5 °F 64.9 °F 56% 30.05 in 10.0 mi ENE 10.4 mph 19.6 mph N/A   Clear
1:58 PM 82.4 °F 84.2 °F 65.3 °F 56% 30.04 in 10.0 mi NE 11.5 mph 21.9 mph N/A   Partly Cloudy
2:58 PM 82.0 °F 83.9 °F 65.3 °F 57% 30.03 in 10.0 mi ENE 9.2 mph - N/A   Clear
3:58 PM 82.6 °F 84.3 °F 65.1 °F 55% 30.02 in 10.0 mi ENE 12.7 mph 21.9 mph N/A   Clear
4:58 PM 82.4 °F 83.9 °F 64.2 °F 54% 30.00 in 10.0 mi East 12.7 mph - N/A   Clear
5:58 PM 81.3 °F 82.7 °F 63.9 °F 55% 30.00 in 10.0 mi ENE 12.7 mph - N/A   Clear
6:58 PM 79.7 °F - 63.3 °F 57% 30.00 in 10.0 mi East 9.2 mph - N/A   Clear
7:58 PM 76.3 °F - 63.5 °F 64% 30.00 in 10.0 mi ENE 5.8 mph - N/A   Clear
8:58 PM 74.3 °F - 62.8 °F 67% 30.01 in 10.0 mi ENE 4.6 mph - N/A   Clear
9:58 PM 73.0 °F - 64.0 °F 73% 30.03 in 10.0 mi East 4.6 mph - N/A   Clear
10:58 PM 72.7 °F - 63.9 °F 74% 30.03 in 10.0 mi East 3.5 mph - N/A   Clear
11:58 PM 71.6 °F - 63.1 °F 75% 30.04 in 10.0 mi East 3.5 mph - N/A   Scattered Clouds